Home > Time Zones > World Clock > Weather > India > Theni > Past weeks

Flag for India Weather past 2 weeks in Theni, Tamil Nadu, India

Now
82 °F

Passing clouds.


Feels Like: 86 °F
Forecast: 74 / 96 °F
Wind: 12 mph from Southwest

Location: Coimbatore / Peelamedu

Current Time: Jul 5, 2015 at 7:41:41 PM

Latest Report: Jul 5, 2015 at 7:00 PM


Visibility: 4 mi

Pressure: 29.83 "Hg

Humidity: 66%

Dew point: 70 °F

Location of TheniLocation

Historic Weather in Theni — Graph

°F

Theni temperature yesterday

Maximum temperature yesterday: 91 °F (at 12:30 PM)
Minimum temperature yesterday: 75 °F (at 4:30 AM)
Average temperature yesterday: 82 °F

Past Weeks' High & Low Weather Summary

 TemperatureHumidityPressure
High93 °F (Jul 2, 2:00 PM)94% (Jun 23, 2:30 AM)29.98 "Hg (Jun 23, 2:30 AM)
Low73 °F (Jun 21, 9:00 PM)44% (Jul 3, 2:30 PM)26.52 "Hg (Jun 30, 8:00 AM)
Average81 °F73%29.85 "Hg
* Reported Jun 20 7:00 PM — Jul 5 6:30 PM, Theni, Weather by CustomWeather, © 2015

Note: Actual official high and low records may vary slightly from our data, if they occured in-between our weather recording intervals... More about our weather records

Advertising

Theni weather history for previous 24 hours

 ConditionsComfort  
Time TempWeatherWind HumidityBarometerVisibility
6:30 PM
Sun, Jul 5
84 °FPassing clouds.10 mph62%29.83 "Hg4 mi
6:00 PM86 °FPassing clouds.13 mph59%29.80 "Hg4 mi
5:30 PM88 °FPassing clouds.14 mph55%29.80 "Hg5 mi
5:00 PM90 °FPassing clouds.14 mph52%29.80 "Hg5 mi
4:30 PM90 °FPassing clouds.16 mph52%29.80 "Hg5 mi
4:00 PM91 °FPassing clouds.14 mph49%29.80 "Hg5 mi
3:30 PM91 °FPassing clouds.15 mph49%29.80 "Hg5 mi
3:00 PM91 °FScattered clouds.15 mph52%29.80 "Hg5 mi
2:30 PM91 °FScattered clouds.14 mph52%29.80 "Hg5 mi
2:00 PM91 °FScattered clouds.15 mph52%29.83 "Hg4 mi
1:30 PM91 °FScattered clouds.14 mph52%29.83 "Hg4 mi
1:00 PM90 °FScattered clouds.15 mph55%29.86 "Hg4 mi
12:30 PM90 °FScattered clouds.7 mph55%29.86 "Hg4 mi
12:00 PM88 °FPassing clouds.9 mph55%29.86 "Hg4 mi
11:30 AM88 °FPassing clouds.7 mph55%29.86 "Hg4 mi
11:00 AM86 °FPassing clouds.2 mph62%29.89 "Hg4 mi
10:30 AM84 °FPassing clouds.9 mph66%29.89 "Hg4 mi
10:00 AM84 °FPassing clouds.6 mph62%29.89 "Hg4 mi
9:30 AM82 °FPassing clouds.5 mph66%29.89 "Hg4 mi
9:00 AM81 °FPassing clouds.6 mph74%29.89 "Hg4 mi
8:30 AM79 °FPassing clouds.6 mph79%29.89 "Hg4 mi
7:30 AM75 °FFog.7 mph89%29.89 "Hg2 mi
7:00 AM75 °FFog.7 mph89%29.89 "Hg2 mi
6:30 AM75 °FFog.7 mph89%29.86 "Hg2 mi
6:00 AM75 °FFog.7 mph89%29.86 "Hg2 mi
5:30 AM75 °FFog.9 mph89%29.86 "Hg2 mi
5:00 AM75 °FFog.8 mph89%29.86 "Hg2 mi
4:30 AM75 °FFog.7 mph89%29.86 "Hg2 mi
4:00 AM75 °FFog.9 mph89%29.86 "Hg2 mi
3:30 AM75 °FFog.8 mph89%29.86 "Hg2 mi
3:00 AM75 °FFog.10 mph89%29.86 "Hg2 mi
2:30 AM75 °FFog.9 mph89%29.86 "Hg2 mi
12:30 AM77 °FHaze.8 mph83%29.89 "Hg3 mi
11:30 PM
Sat, Jul 4
77 °FHaze.9 mph83%29.92 "Hg3 mi
11:00 PM77 °FHaze.12 mph83%29.92 "Hg3 mi
10:00 PM79 °FPassing clouds.9 mph79%29.92 "Hg4 mi
9:30 PM79 °FPassing clouds.12 mph79%29.92 "Hg4 mi
9:00 PM79 °FPassing clouds.14 mph79%29.92 "Hg4 mi
8:30 PM79 °FPassing clouds.12 mph84%29.89 "Hg4 mi
8:00 PM81 °FPassing clouds.14 mph79%29.89 "Hg4 mi
7:30 PM81 °FPassing clouds.13 mph79%29.86 "Hg4 mi
7:00 PM82 °FPassing clouds.10 mph74%29.86 "Hg4 mi
Weather by CustomWeather, © 2015

See weather overviewHow to use our weather pages